• MPC Preparation (Info)

  • MPEC 2015-N09 : 2015 NF

    The following Minor Planet Electronic Circular may be linked-to from your own Web pages, but must not otherwise be redistributed electronically.

    A form allowing access to any MPEC is at the bottom of this page.


    Read MPEC 2015-N08 Read MPEC 2015-N10


    M.P.E.C. 2015-N09                                Issued 2015 July 6, 14:05 UT
    
         The Minor Planet Electronic Circulars contain information on unusual
             minor planets and routine data on comets.  They are published
       on behalf of Commission 20 of the International Astronomical Union by the
              Minor Planet Center, Smithsonian Astrophysical Observatory,
                              Cambridge, MA 02138, U.S.A.
    
                 Prepared using the Tamkin Foundation Computer Network
    
                                  MPC@CFA.HARVARD.EDU
                URL https://www.minorplanetcenter.net/    ISSN 1523-6714
    
                                        2015 NF
    
    Observations:
         K15N00F* C2015 07 03.45538 17 07 13.218+19 40 46.41         18.6 iLEN009F51
         K15N00F  C2015 07 03.46903 17 07 02.678+19 41 08.83         18.3 iLEN009F51
         K15N00F  C2015 07 03.48400 17 06 51.122+19 41 32.88         18.0 iLEN009F51
         K15N00F KC2015 07 05.11141816 44 25.19 +20 23 58.2          17.7 VuEN009H21
         K15N00F KC2015 07 05.11361416 44 23.17 +20 24 01.5          18.0 VuEN009H21
         K15N00F KC2015 07 05.11565616 44 21.29 +20 24 04.3          17.8 VuEN009H21
         K15N00F KC2015 07 05.11769316 44 19.44 +20 24 07.4          17.8 VuEN009H21
         K15N00F KC2015 07 05.12106 16 44 16.64 +20 24 12.4          17.5 RqEN009H36
         K15N00F KC2015 07 05.12371 16 44 14.21 +20 24 16.0          17.6 RqEN009H36
         K15N00F KC2015 07 05.12635 16 44 11.78 +20 24 19.7          17.6 RqEN009H36
         K15N00F KC2015 07 05.51335 16 38 14.46 +20 34 08.0          17.5 VqEN009E23
         K15N00F KC2015 07 05.52123 16 38 06.94 +20 34 18.8          17.6 VqEN009E23
         K15N00F KC2015 07 05.52909 16 37 59.43 +20 34 29.1          17.5 VqEN009E23
         K15N00F KC2015 07 05.83803 16 33 04.93 +20 40 23.2          17.4 VtEN009L04
         K15N00F KC2015 07 05.84140 16 33 01.60 +20 40 27.5          17.6 VtEN009L04
         K15N00F KC2015 07 05.84488 16 32 58.18 +20 40 32.1          17.5 VtEN009L04
         K15N00F KC2015 07 05.84891 16 32 54.21 +20 40 37.1          17.4 VtEN009L04
         K15N00F KC2015 07 05.85239 16 32 51.17 +20 40 41.9          17.2 RrEN009106
         K15N00F KC2015 07 05.85374 16 32 49.80 +20 40 43.7          17.4 RrEN009106
         K15N00F KC2015 07 05.85392 16 32 49.29 +20 40 43.4          17.5 VtEN009L04
         K15N00F KC2015 07 05.85509 16 32 48.49 +20 40 45.4          17.3 RrEN009106
         K15N00F KC2015 07 05.85644 16 32 47.17 +20 40 46.8          17.3 RrEN009106
         K15N00F KC2015 07 05.87980 16 32 24.65 +20 41 23.1          17.7 RcEN009I57
         K15N00F KC2015 07 05.88000 16 32 24.46 +20 41 23.2          17.9 RcEN009I57
         K15N00F KC2015 07 05.88052 16 32 23.96 +20 41 23.7          18.0 RcEN009I57
         K15N00F KC2015 07 05.89264 16 32 11.95 +20 41 34.7          18.8 VqEN009958
         K15N00F KC2015 07 05.89643 16 32 08.19 +20 41 39.0          18.5 VqEN009958
         K15N00F KC2015 07 05.90022 16 32 04.44 +20 41 44.0          18.5 VqEN009958
         K15N00F KC2015 07 05.90401 16 32 00.70 +20 41 48.2          18.5 VqEN009958
         K15N00F KC2015 07 05.90804 16 31 56.80 +20 41 48.3                qEN009J95
         K15N00F KC2015 07 05.91163 16 31 53.22 +20 41 53.0                qEN009J95
         K15N00F KC2015 07 05.91540 16 31 49.51 +20 41 57.8          18.7 RqEN009J95
         K15N00F KC2015 07 05.92457 16 31 39.89 +20 42 14.4          18.8 RqEN009160
         K15N00F KC2015 07 05.92611 16 31 38.36 +20 42 15.7          18.4 RqEN009160
         K15N00F KC2015 07 05.92689 16 31 37.58 +20 42 16.5          18.6 RqEN009160
         K15N00F KC2015 07 05.92765 16 31 36.77 +20 42 17.6          18.5 RqEN009160
         K15N00F KC2015 07 05.92922 16 31 35.34 +20 42 18.2          18.5 RqEN009160
         K15N00F 9C2015 07 06.09601 16 28 49.24 +20 45 50.2          17.6 VqEN009G40
         K15N00F 9C2015 07 06.11664 16 28 28.45 +20 46 13.4          17.8 VqEN009G40
         K15N00F KC2015 07 06.15949916 27 47.75 +20 47 03.2          19.1 VuEN009H21
         K15N00F KC2015 07 06.16287116 27 44.31 +20 47 07.4          18.7 VuEN009H21
         K15N00F KC2015 07 06.16502316 27 42.12 +20 47 09.9          18.9 VuEN009H21
         K15N00F KC2015 07 06.16717716 27 39.92 +20 47 12.4          18.8 VuEN009H21
         K15N00F KC2015 07 06.16932716 27 37.73 +20 47 15.0          18.9 VuEN009H21
         K15N00F KC2015 07 06.17161916 27 35.39 +20 47 17.7          19.1 VuEN009H21
         K15N00F KC2015 07 06.17405716 27 32.93 +20 47 20.7          18.4 VuEN009H21
         K15N00F KC2015 07 06.46792 16 22 34.45 +20 53 42.3          18.0 VqEN009E23
         K15N00F KC2015 07 06.49091 16 22 10.30 +20 54 07.7          18.3 VqEN009E23
         K15N00F KC2015 07 06.49832 16 22 02.51 +20 54 15.1          17.6 VqEN009E23
    
    Observer details:
    106 Crni Vrh.  Observer B. Mikuz.  0.6-m f/3.3 Deltagraph + CCD.
    160 Castelmartini.  Observers M. Jaeger, E. Prosperi, S. Prosperi, W. Vollmann.
        Measurer E. Prosperi.  0.35-m f/10 Schmidt-Cassegrain + CCD.
    958 Observatoire de Dax.  Observers P. Dupouy, J. B. de Vanssay.  Measurer
        P. Dupouy.  0.43-m f/2.7 reflector + CCD.
    E23 Arcadia.  Observer A. Hidas.  0.35-m f/7.0 Schmidt-Cassegrain + CCD.
    F51 Pan-STARRS 1, Haleakala.  Observers B. Gibson, T. Goggia, N. Primak,
        A. Schultz, M. Willman.  Measurers K. Chambers, S. Chastel, L. Denneau,
        H. Flewelling, M. Huber, E. Lilly, E. Magnier, R. Wainscoat, C. Waters,
        R. Weryk.  1.8-m Ritchey-Chretien + CCD.
    G40 Slooh.com Canary Islands Observatory.  Observer B. Lutkenhoner.  0.43-m
        f/6.8 Corrected Dall-Kirkham + CCD.
    H21 Astronomical Research Observatory, Westfield.  Observer R. Holmes.
        Measurers S. Foglia, L. Buzzi, T. Linder, R. Holmes.  0.61-m f/4.5
        astrograph + CCD, 0.76-m f/3.0 astrograph + CCD.
    H36 Sandlot Observatory, Scranton.  Observer G. Hug.  0.56-m reflector + CCD.
    I57 Elche.  Observer J. Lozano.  0.25-m f/6.3 Corrected Dall-Kirkham + CCD.
    J95 Great Shefford.  Observer P. Birtwhistle.  0.40-m f/6.0 Schmidt-Cassegrain
        + CCD.
    L04 ROASTERR-1 Observatory, Cluj-Napoca.  Observer L. Hudin.  0.3-m f/5.0
        reflector + CCD.
    
    Orbital elements:
    2015 NF                                                  Earth MOID = 0.0683 AU
    Epoch 2015 June 27.0 TT = JDT 2457200.5                 MPC
    M 341.81974              (2000.0)            P               Q
    n   0.30570961     Peri.  292.33321     +0.60954597     -0.60308582
    a   2.1823780      Node   109.03982     +0.76208505     +0.62454969
    e   0.8570531      Incl.   32.97739     -0.21835769     +0.49621082
    P   3.22           H   19.6           G   0.15           U   8
    Residuals in seconds of arc
    150703 F51  0.4+  0.0     150705 106  0.4+  0.0     150705 160  0.2-  0.1-
    150703 F51  0.1+  0.2+    150705 106  0.2-  0.0     150705 160  1.0-  0.1+
    150703 F51  0.1-  0.0     150705 L04  0.0   0.1+    150705 160  0.8+  1.3-
    150705 H21  0.3+  0.2+    150705 106  0.1+  0.0     150706 G40  0.4+  0.1+
    150705 H21  0.1+  0.3+    150705 106  0.2+  0.3-    150706 G40  0.2-  0.1+
    150705 H21  0.1-  0.1+    150705 I57  0.6-  1.3+    150706 H21  0.0   0.0
    150705 H21  0.1+  0.3+    150705 I57  0.5-  1.2+    150706 H21  0.1-  0.2+
    150705 H36  0.1-  0.3+    150705 I57  0.2-  1.0+    150706 H21  0.1-  0.2+
    150705 H36  0.1-  0.1+    150705 958  0.4-  0.4+    150706 H21  0.3-  0.2+
    150705 H36  0.3-  0.1-    150705 958  0.6-  0.1-    150706 H21  0.3-  0.3+
    150705 E23  0.2+  0.1+    150705 958  0.5-  0.1+    150706 H21  0.4-  0.3+
    150705 E23  0.3+  0.4+    150705 958  0.3-  0.5-    150706 H21  0.1-  0.5+
    150705 E23  0.3+  0.2+    150705 J95  0.7+  0.3-    150706 E23  0.3+  0.1-
    150705 L04  0.0   0.1+    150705 J95  0.3+  0.1-    150706 E23  0.1+  0.5+
    150705 L04  0.2-  0.1+    150705 J95  0.6+  0.0     150706 E23  0.2+  0.0
    150705 L04  0.1-  0.3+    150705 160  0.1-  0.6+
    150705 L04  0.2-  0.2+    150705 160  0.2-  0.1+
    
    Ephemeris:
    2015 NF                  a,e,i = 2.18, 0.86, 33                  q = 0.3120
    Date    TT    R. A. (2000) Decl.     Delta      r     Elong.  Phase     V
    2015 06 06    19 08 10.4 +09 36 56   0.6906  1.5748   134.0    27.6    21.0
    ...
    2015 06 21    18 36 14.2 +14 09 57   0.4207  1.3695   141.1    27.7    19.6
    ...
    2015 06 29    17 52 05.4 +17 32 23   0.2949  1.2519   138.2    32.8    18.8
    ...
    2015 07 05    16 46 05.0 +20 21 29   0.2171  1.1595   126.7    44.7    18.3
    2015 07 06    16 30 27.3 +20 44 03   0.2065  1.1437   123.5    47.8    18.3
    2015 07 07    16 13 11.6 +21 01 54   0.1968  1.1278   119.9    51.4    18.2
    ...
    2015 07 13    13 59 28.1 +19 22 02   0.1660  1.0300    90.0    80.7    18.6
    ...
    2015 07 21    11 18 06.5 +09 07 48   0.2108  0.8928    49.2   120.5    20.9
    ...
    2015 08 05    09 21 23.0 +00 34 38   0.4351  0.6139    17.6   150.1    25.2
    
    A. U. Tomatic                (C) Copyright 2015 MPC           M.P.E.C. 2015-N09
    

    Read MPEC 2015-N08 Read MPEC 2015-N10


    MPEC number:

    Enter an MPEC number in one of the following forms:

    • 1997-B01 (the full form)
    • J97B01 (the packed version of the full form)
    • B01 (the abbreviated form)